1
0
mirror of https://codeberg.org/diginaut/dotfiles.git synced 2026-05-06 20:24:10 +02:00
Commit Graph

788 Commits

Author SHA1 Message Date
diginaut 8d0d165e13 Vocabulary++ 2018-08-18 08:11:57 +02:00
diginaut 8c20485cc4 No need for a seperate match for first-character-on-line 2018-08-17 09:29:09 +02:00
diginaut fc6e3185c9 Fixed highlighting indented items, fixed cancelled and removed unneeded operators 2018-08-17 09:22:52 +02:00
diginaut 06ae439d34 Changed the scratch-through to double dash, lowlight in grey 2018-08-15 20:22:59 +02:00
diginaut e17a4e5cd1 Better indent matching, darker grey for true colour 2018-08-15 20:14:10 +02:00
diginaut 09effc7b5a Fixed highlighting of deeper nested items 2018-08-15 16:32:25 +02:00
diginaut 788713d9aa Old-fashioned symlinking, at least works 2018-08-15 15:57:45 +02:00
diginaut 763cc10f31 Disable Mercurial support 2018-08-15 15:52:21 +02:00
diginaut 448c38af46 Link the falcon .githelpers file to user homedir 2018-08-15 15:51:59 +02:00
diginaut 08837b9832 Moved the link creation and backup into a function 2018-08-15 15:44:16 +02:00
diginaut 57eff21864 Vocabulary++ 2018-08-15 15:21:02 +02:00
diginaut 64fdd14ab0 Exit when target directory does not exist on cd 2018-08-15 15:20:58 +02:00
diginaut 52f1243711 Handy aliases 2018-08-15 15:20:37 +02:00
diginaut 456e9a1d01 Removed alternative highlight themes (nice ones though) 2018-08-14 13:55:57 +02:00
diginaut 013d306ff9 Vocabulary++ 2018-08-14 13:55:23 +02:00
diginaut f7a5f842e2 Removed spellcheck overrides 2018-08-14 13:55:17 +02:00
diginaut 20cf59990b Vocabulary 2018-08-13 22:17:34 +02:00
diginaut 17221e10da Attempt to override spellcheck highlighting; hotkey to check highlight group under cursor 2018-08-13 22:17:32 +02:00
diginaut f2f3f11380 Merge branch 'master' of /home/mbscholt/.dot/dotfiles 2018-08-13 14:12:10 +02:00
diginaut 3777793d68 Include guifg colours for everything, will break on true colour
otherwise
2018-08-13 10:22:33 +02:00
diginaut 4f51551023 True colour testing for terminal and tmux 2018-08-12 20:22:28 +02:00
diginaut 7e255e9e08 Some other themes 2018-08-12 20:22:15 +02:00
diginaut b44fca1e2b vim-tradewinds needs a minimum version of vim 2018-08-11 12:15:05 +02:00
diginaut c5ed8d5452 Better syntax 2018-08-11 12:14:50 +02:00
diginaut 3ba42d9c80 Some more information 2018-08-10 20:08:45 +02:00
diginaut 306cdd9e2c Better true colour support 2018-08-10 17:38:09 +02:00
diginaut 63d23c3453 Trying to make it work with true color 2018-08-10 14:23:34 +02:00
diginaut b214f34904 Reload configuration with leader r 2018-08-10 14:23:19 +02:00
diginaut 9ee0e4b478 Bye zenburn :( Hello falcon! 2018-08-10 13:20:03 +02:00
diginaut 45aa2b5f44 Use python 3 for virtualfish 2018-08-09 15:34:38 +02:00
diginaut eb26af7c4f Merge branch 'master' of github.com:aquatix/dotfiles 2018-08-06 09:44:38 +02:00
diginaut 2f60dd816d Vocabulary++ 2018-08-06 09:44:10 +02:00
diginaut 351f5d6315 Word++ 2018-08-05 19:56:17 +02:00
diginaut f2eaf81da5 Disable matchup for now, as it breaks now and then 2018-07-29 11:00:39 +02:00
diginaut 291718604d Link forgotten items 2018-07-25 10:41:19 +02:00
diginaut dab309fa57 Important items are also todoItem 2018-07-25 10:41:16 +02:00
diginaut 8040ca01bc Better match indented todo items 2018-07-25 10:40:43 +02:00
diginaut 1a24dc1992 Added notes to their own group 2018-07-25 10:38:40 +02:00
diginaut c079f686a0 Be more inclusive regarding dashes and underscores 2018-07-25 10:00:24 +02:00
diginaut 2e7fa8ac98 Add user base bin dir, for use with pipenv and such 2018-07-23 11:32:50 +02:00
diginaut 14853e5cef Plugin to better match and highlight code pairs 2018-07-18 10:45:21 +02:00
diginaut 6e8d004051 Started making better sections 2018-07-18 10:28:42 +02:00
diginaut 1a38ce9c28 Remove syntastic config, as ALE has replaced it 2018-07-18 10:23:34 +02:00
diginaut 98dcac072f Easily change window positions 2018-07-18 10:22:38 +02:00
diginaut 96ddb648d1 Expanding zeh vocabularah 2018-07-15 09:28:32 +02:00
diginaut 20f0e2f05a Vocabulary, resolved merge conflict 2018-07-14 11:30:16 +02:00
diginaut 4f6e0c29be Merge branch 'master' of github.com:aquatix/dotfiles 2018-07-14 11:28:19 +02:00
diginaut c5e88b9e3b Vocubulary 2018-07-14 11:27:53 +02:00
diginaut 6242ca7a68 Word 2018-07-14 09:40:09 +02:00
diginaut d7468b2423 Vocabulary 2018-07-13 11:07:31 +02:00